[[{"header":{"parameterUnit":"m.s-1","parameterCategory":1,"la1":30.2991,"la2":30.254,"lo1":-89.0895,"lo2":-89.0444,"dy":0.0017,"dx":0.0017,"nx":28,"ny":28,"refTime":"2025-03-04T09:00:00:Z","depth":0,"parameterNumber":2,"parameterNumberName":"U-component_of_WINDS"},"data":[0,0,0,0,0,0,0,0,0,0,0,0,0,0,0,0,0,0,0,0,0,0,0,0,0,0,0,0,0,0,0,0,0,0,0,0,0,0,0,0,0,0,0,0,0,0,0,0,0,0,0,0,0,0,0,0,0,0,8.0365,8.0366,0,8.0458,8.0459,8.046,8.0389,8.0386,8.0383,8.038,8.0478,8.0483,8.0489,0,0,0,0,0,0,0,0,0,0,0,0,0,8.0128,8.0133,8.0365,8.0366,8.0367,8.0458,8.0459,8.0461,8.0389,8.0386,8.0382,8.0378,8.0476,8.0483,8.0489,0,0,0,0,0,0,0,0,0,0,0,0,0,8.0227,8.0134,8.0364,8.0342,8.0341,8.0458,8.0459,8.0461,8.039,8.0385,8.0381,8.0376,8.0474,8.0482,8.049,8.0635,0,0,8.0516,8.0519,0,0,0,0,0,0,0,0,8.0222,8.0236,8.0344,8.0344,8.0343,8.0407,8.0412,8.0519,8.0391,8.0372,8.038,8.0374,8.0458,8.0468,8.0496,8.0639,8.0643,8.0516,8.0521,8.0525,8.0527,0,0,0,0,0,0,0,8.0215,8.0232,8.0402,8.0346,8.0345,8.0329,8.0338,8.0432,8.044,8.0373,8.0368,8.038,8.0457,8.0488,8.0497,8.0645,8.0516,8.0523,8.0529,8.0532,8.0916,8.0921,0,0,0,0,0,0,8.021,8.0226,8.0399,8.0404,8.027,8.0337,8.0347,8.0391,8.0439,8.0442,8.0384,8.0376,8.0476,8.0488,8.0501,8.0676,8.0525,8.0533,8.0537,8.0911,8.0917,8.0923,0,0,0,0,0,0,8.0205,8.0226,8.0395,8.0314,8.0334,8.0346,8.0396,8.0396,8.0426,8.0447,8.0448,8.0413,8.0473,8.0489,8.0603,8.0678,8.0536,8.0544,8.0905,8.0913,8.092,8.1025,0,0,0,0,0,0,8.0198,8.0224,8.0278,8.0316,8.0339,8.0494,8.0401,8.0401,8.044,8.0431,8.0475,8.0478,8.047,8.0591,8.0611,8.0687,8.055,8.0898,8.0908,8.0917,8.1015,8.1035,8.1053,0,0,0,0,0,8.019,8.0304,8.0281,8.0302,8.0406,8.0499,8.0512,8.05,8.0446,8.0502,8.0516,8.0477,8.0666,8.0603,8.0625,8.0704,8.0893,8.0905,8.0917,8.1006,8.1031,8.1053,0,0,0,0,0,0,8.0275,8.0308,8.0284,8.0412,8.0453,8.0486,8.0555,8.0527,8.0584,8.0574,8.0557,8.0568,8.0688,8.0707,8.0636,8.0849,8.0771,8.0788,8.0832,8.0856,8.0875,8.0868,8.0557,0,0,0,0,0,8.0308,8.0379,8.0405,8.0516,8.0538,8.0544,8.0583,8.0571,8.0613,8.063,8.0652,8.0695,8.0765,8.0811,8.0876,8.1017,8.1027,8.1083,8.1102,8.1117,8.1133,8.1212,8.1238,8.0961,8.0961,8.0961,0,0,8.0378,8.0405,8.0451,8.0534,8.0564,8.0641,8.0559,8.0641,8.0699,8.0643,8.0752,8.077,8.0818,8.0947,8.1005,8.0966,8.1212,8.1132,8.1145,8.1152,8.1227,8.1253,8.1277,8.0969,8.0968,8.0967,0,0,8.0546,8.0572,8.0669,8.0702,8.0749,8.0752,8.0776,8.0814,8.0824,8.0933,8.0894,8.0962,8.1081,8.1118,8.1152,8.1336,8.1304,8.1358,8.1458,8.1536,8.1558,8.1577,8.1646,8.1671,8.1373,8.1373,8.1373,0,8.0627,8.0739,8.0723,8.081,8.0849,8.0802,8.0902,8.0934,8.1001,8.103,8.0986,8.1137,8.1165,8.1303,8.1349,8.1377,8.1406,8.1353,8.1556,8.1575,8.1593,8.1658,8.1684,8.1379,8.1379,8.1378,8.1377,0,8.0839,8.0917,8.099,8.1056,8.1103,8.1196,8.1196,8.1246,8.123,8.1239,8.1353,8.1385,8.1457,8.1489,8.1474,8.1627,8.1602,8.1557,8.148,8.1626,8.1688,8.1712,8.1389,8.1386,8.1384,8.1383,0,0,8.1062,8.1119,8.1146,8.1177,8.1226,8.1288,8.138,8.145,8.1495,8.1542,8.1621,8.1724,8.1684,8.1723,8.1712,8.178,8.1928,8.1727,8.1728,8.1766,8.2103,8.2138,8.2167,8.1906,8.1911,8.1915,8.21,0,8.1234,8.1394,8.1383,8.1534,8.1609,8.1566,8.1647,8.1687,8.1698,8.1764,8.1776,8.1851,8.1791,8.1815,8.188,8.1896,8.1996,8.1882,8.1982,8.1986,8.1974,8.2199,8.2235,8.2409,8.2123,8.2127,8.213,0,8.1456,8.1512,8.1671,8.1712,8.1743,8.1815,8.1881,8.1943,8.1989,8.1993,8.2038,8.2016,8.2112,8.2031,8.2164,8.2087,8.2127,8.2142,8.2148,8.2159,8.2068,8.2218,8.2463,8.249,8.2167,8.2164,8.2162,0,8.1607,8.1722,8.1833,8.186,8.191,8.1962,8.1986,8.2027,8.2071,8.2128,8.2158,8.2225,8.2263,8.2318,8.2316,8.2256,8.2452,8.237,8.246,8.2461,8.2505,8.2503,8.2763,8.2527,8.2527,8.2526,8.2525,0,8.1802,8.1901,8.1901,8.197,8.2081,8.2069,8.218,8.2198,8.2235,8.2308,8.2275,8.2344,8.2337,8.2407,8.2406,8.2519,8.2536,8.2543,8.2542,8.2548,8.2547,8.2575,8.2564,8.2533,8.2531,8.253,8.2529,0,8.199,8.1993,8.2112,8.215,8.2162,8.2243,8.2276,8.2342,8.235,8.2443,8.2464,8.2479,8.256,8.2563,8.2657,8.2657,8.2795,8.2779,8.2779,8.2777,8.2869,8.2861,8.3158,8.3198,8.2933,8.2936,8.2938,0,8.2115,8.2191,8.2238,8.2284,8.2311,8.2385,8.243,8.2422,8.247,8.253,8.259,8.2668,8.273,8.2863,8.2883,8.2955,8.2943,8.3042,8.2954,8.2958,8.2948,8.2945,8.2954,8.306,8.3063,8.3065,8.3067,0,8.2339,8.2337,8.2403,8.2471,8.2526,8.2579,8.2628,8.2668,8.2665,8.2722,8.2805,8.2853,8.295,8.3029,8.31,8.3126,8.3098,8.3094,8.312,8.3127,8.3126,8.3131,8.2829,8.3088,8.3086,8.3084,8.3083,8.3082,8.2501,8.2568,8.2612,8.2688,8.2724,8.2771,8.2836,8.2853,8.2921,8.2999,8.299,8.3083,8.313,8.3222,8.3254,8.3328,8.3294,8.333,8.3339,8.3349,8.336,8.3112,8.334,8.334,8.3339,8.3338,8.3338,0,8.2726,8.2752,8.2822,8.2892,8.2952,8.2919,8.2972,8.3025,8.3107,8.3153,8.3215,8.3312,8.339,8.3416,8.3492,8.3546,8.3536,8.3567,8.3564,8.3571,8.3385,8.3357,8.3574,8.3574,8.3574,8.3574,8.3574,8.3574,8.285,8.2963,8.2967,8.3097,8.3123,8.3214,8.3248,8.3292,8.3329,8.3438,8.3502,8.3518,8.3557,8.3636,8.3706,8.3712,8.3743,8.3781,8.3782,8.3607,8.3584,8.3561,8.3535,8.3787,8.3787,8.3962,8.3964,8.3965]},{"header":{"parameterUnit":"m.s-1","parameterCategory":1,"la1":30.2991,"la2":30.254,"lo1":-89.0895,"lo2":-89.0444,"dy":0.0017,"dx":0.0017,"nx":28,"ny":28,"refTime":"2025-03-04T09:00:00:Z","depth":0,"parameterNumber":3,"parameterNumberName":"V-component_of_WINDS"},"data":[0,0,0,0,0,0,0,0,0,0,0,0,0,0,0,0,0,0,0,0,0,0,0,0,0,0,0,0,0,0,0,0,0,0,0,0,0,0,0,0,0,0,0,0,0,0,0,0,0,0,0,0,0,0,0,0,0,0,-1.0202,-1.0202,0,-1.0166,-1.0166,-1.0165,-1.0195,-1.0197,-1.0198,-1.0199,-1.0159,-1.0157,-1.0154,0,0,0,0,0,0,0,0,0,0,0,0,0,-1.0296,-1.0294,-1.0202,-1.0202,-1.0201,-1.0166,-1.0166,-1.0165,-1.0195,-1.0197,-1.0198,-1.02,-1.016,-1.0157,-1.0154,0,0,0,0,0,0,0,0,0,0,0,0,0,-1.0257,-1.0293,-1.0202,-1.0212,-1.0213,-1.0166,-1.0166,-1.0165,-1.0195,-1.0197,-1.0199,-1.0201,-1.0161,-1.0157,-1.0154,-1.0095,0,0,-1.0144,-1.0142,0,0,0,0,0,0,0,0,-1.0259,-1.0253,-1.0211,-1.0211,-1.0212,-1.0187,-1.0184,-1.0141,-1.0194,-1.0202,-1.0199,-1.0201,-1.0167,-1.0163,-1.0152,-1.0093,-1.0091,-1.0143,-1.0141,-1.014,-1.0139,0,0,0,0,0,0,0,-1.0262,-1.0255,-1.0188,-1.0211,-1.0211,-1.0218,-1.0214,-1.0176,-1.0174,-1.0201,-1.0203,-1.0199,-1.0167,-1.0155,-1.0151,-1.0091,-1.0143,-1.014,-1.0138,-1.0137,-0.9983,-0.9981,0,0,0,0,0,0,-1.0264,-1.0257,-1.0189,-1.0187,-1.0241,-1.0215,-1.0211,-1.0193,-1.0174,-1.0173,-1.0197,-1.02,-1.016,-1.0155,-1.015,-1.008,-1.014,-1.0137,-1.0135,-0.9985,-0.9982,-0.998,0,0,0,0,0,0,-1.0265,-1.0257,-1.019,-1.0222,-1.0215,-1.0211,-1.0191,-1.0191,-1.0179,-1.0171,-1.0171,-1.0185,-1.0161,-1.0154,-1.0109,-1.0079,-1.0135,-1.0132,-0.9987,-0.9984,-0.9981,-0.994,0,0,0,0,0,0,-1.0268,-1.0258,-1.0235,-1.0222,-1.0213,-1.015,-1.0189,-1.0189,-1.0174,-1.0178,-1.016,-1.0159,-1.0162,-1.0114,-1.0105,-1.0075,-1.0129,-0.999,-0.9986,-0.9982,-0.9944,-0.9936,-0.9929,0,0,0,0,0,-1.0271,-1.0224,-1.0234,-1.0226,-1.0185,-1.0149,-1.0143,-1.0149,-1.0171,-1.0149,-1.0144,-1.0159,-1.0084,-1.0109,-1.01,-1.0068,-0.9992,-0.9987,-0.9983,-0.9947,-0.9937,-0.9929,0,0,0,0,0,0,-1.0233,-1.0223,-1.0233,-1.0181,-1.0166,-1.0154,-1.0126,-1.0138,-1.0115,-1.012,-1.0127,-1.0123,-1.0075,-1.0067,-1.0095,-1.0011,-1.0041,-1.0035,-1.0018,-1.0008,-1.0001,-1.0003,-1.0127,0,0,0,0,0,-1.0219,-1.0191,-1.0183,-1.0137,-1.0129,-1.0129,-1.0113,-1.0119,-1.0103,-1.0096,-1.0088,-1.0071,-1.0044,-1.0026,-1.0,-0.9943,-0.994,-0.9917,-0.991,-0.9904,-0.9898,-0.9868,-0.9858,-0.9965,-0.9965,-0.9965,0,0,-1.0188,-1.0179,-1.0161,-1.0129,-1.0118,-1.0089,-1.0123,-1.009,-1.0068,-1.0091,-1.0048,-1.0041,-1.0023,-0.9972,-0.9949,-0.9964,-0.9868,-0.9898,-0.9893,-0.989,-0.9862,-0.9852,-0.9843,-0.9962,-0.9962,-0.9963,0,0,-1.0118,-1.0108,-1.007,-1.0058,-1.0042,-1.0042,-1.0033,-1.002,-1.0017,-0.9974,-0.9991,-0.9965,-0.9917,-0.9904,-0.9891,-0.9818,-0.9831,-0.9809,-0.977,-0.9741,-0.9732,-0.9725,-0.97,-0.969,-0.9803,-0.9803,-0.9803,0,-1.0082,-1.0039,-1.0048,-1.0014,-1.0,-1.0021,-0.9982,-0.9971,-0.9946,-0.9935,-0.9953,-0.9895,-0.9884,-0.9831,-0.9813,-0.9802,-0.9792,-0.9811,-0.9733,-0.9726,-0.9719,-0.9695,-0.9685,-0.9801,-0.9801,-0.9801,-0.9802,0,-0.9996,-0.9966,-0.9937,-0.9914,-0.9897,-0.9861,-0.9864,-0.9845,-0.9853,-0.9851,-0.9808,-0.9796,-0.9769,-0.9757,-0.9763,-0.9705,-0.9715,-0.9732,-0.9763,-0.9706,-0.9684,-0.9674,-0.9797,-0.9798,-0.9799,-0.9799,0,0,-0.9899,-0.9884,-0.9873,-0.9863,-0.9847,-0.9824,-0.9789,-0.9764,-0.9748,-0.9731,-0.9702,-0.9662,-0.9679,-0.9665,-0.967,-0.9645,-0.9589,-0.9666,-0.9666,-0.9652,-0.9524,-0.9511,-0.95,-0.9598,-0.9596,-0.9595,-0.9526,0,-0.9829,-0.9769,-0.9777,-0.9719,-0.9692,-0.9713,-0.9682,-0.9669,-0.9667,-0.9643,-0.9641,-0.9613,-0.9637,-0.9629,-0.9605,-0.9601,-0.9563,-0.9606,-0.9571,-0.9569,-0.9575,-0.9488,-0.9474,-0.9409,-0.9517,-0.9515,-0.9514,0,-0.9738,-0.972,-0.966,-0.965,-0.9639,-0.9611,-0.959,-0.9567,-0.9552,-0.9553,-0.9537,-0.9548,-0.9513,-0.9545,-0.9497,-0.9526,-0.9512,-0.9508,-0.9506,-0.9503,-0.9538,-0.9483,-0.9388,-0.9379,-0.95,-0.9502,-0.9503,0,-0.9675,-0.9634,-0.9594,-0.9585,-0.9572,-0.9552,-0.9546,-0.9533,-0.9518,-0.9499,-0.949,-0.9466,-0.9453,-0.9435,-0.9439,-0.9462,-0.939,-0.9422,-0.9389,-0.9389,-0.9373,-0.9374,-0.9275,-0.9364,-0.9364,-0.9364,-0.9364,0,-0.9595,-0.9558,-0.9565,-0.954,-0.9499,-0.9509,-0.9468,-0.9463,-0.9453,-0.9427,-0.9443,-0.9418,-0.9425,-0.9401,-0.9404,-0.9364,-0.9358,-0.9357,-0.9359,-0.9356,-0.9356,-0.9347,-0.9352,-0.9362,-0.9362,-0.9363,-0.9363,0,-0.9517,-0.952,-0.9478,-0.9469,-0.9466,-0.9437,-0.9429,-0.9406,-0.9406,-0.9373,-0.9366,-0.9366,-0.9338,-0.9341,-0.9309,-0.9311,-0.9262,-0.9269,-0.9268,-0.9269,-0.9236,-0.924,-0.9128,-0.9115,-0.9212,-0.9211,-0.921,0,-0.9466,-0.9439,-0.9428,-0.9413,-0.9405,-0.938,-0.9365,-0.9373,-0.9357,-0.934,-0.9318,-0.9293,-0.9272,-0.9228,-0.9224,-0.9201,-0.9207,-0.917,-0.9203,-0.9202,-0.9207,-0.9209,-0.9206,-0.9163,-0.9162,-0.9161,-0.916,0,-0.9376,-0.938,-0.9358,-0.9338,-0.932,-0.9304,-0.9289,-0.9275,-0.9282,-0.9263,-0.9236,-0.9221,-0.919,-0.9164,-0.9142,-0.9135,-0.9149,-0.915,-0.9141,-0.9138,-0.9139,-0.9139,-0.925,-0.9152,-0.9153,-0.9153,-0.9154,-0.9154,-0.9311,-0.9287,-0.9277,-0.9253,-0.9243,-0.9229,-0.9207,-0.9205,-0.9183,-0.9159,-0.9165,-0.9135,-0.9122,-0.9094,-0.9085,-0.9061,-0.9075,-0.9062,-0.9059,-0.9055,-0.9052,-0.9143,-0.9057,-0.9057,-0.9058,-0.9058,-0.9058,0,-0.9222,-0.9217,-0.9194,-0.9174,-0.9155,-0.9171,-0.9156,-0.9139,-0.9112,-0.91,-0.9081,-0.905,-0.9026,-0.9021,-0.8998,-0.898,-0.8985,-0.8973,-0.8975,-0.8973,-0.9041,-0.9051,-0.8969,-0.8969,-0.8969,-0.8969,-0.8969,-0.8969,-0.9174,-0.9136,-0.9138,-0.9095,-0.909,-0.9061,-0.9051,-0.9039,-0.9029,-0.8995,-0.8975,-0.8973,-0.8963,-0.894,-0.8919,-0.8918,-0.8909,-0.8894,-0.8896,-0.8959,-0.8968,-0.8977,-0.8986,-0.8892,-0.8892,-0.883,-0.883,-0.8829]}]]